GFSWCAN_con_3kmhel_156.txt.gz
Helicity
-24 -37 -17 27 31 14 32 23 9 22 53 -10 69 217 314 53 -21 -5 96 119 121 97 108 128 97 97 64 43 36 86 72 68 115 105 125 59 59 12 10 4 -30 58 147 79 91 94 12 2 61 38 73 83 88 49
8 33 19 5 64 19 38 5 31 38 43 17 86 96 80 5 -26 5 72 80 78 92 118 150 127 107 127 112 71 49 113 88 117 79 73 67 49 42 28 35 47 64 88 48 70 84 138 90 112 85 79 83 63 72
-1 -7 -1 22 22 25 8 27 59 42 42 8 66 84 42 14 -1 60 131 101 162 137 68 73 59 18 41 43 73 87 75 65 -10 16 41 37 28 37 11 20 4 33 15 100 -3 15 94 4 -5 81 86 103 123 83
21 48 69 35 28 17 104 131 32 46 17 89 72 93 30 25 46 131 175 168 159 134 93 62 7 36 16 35 49 45 34 89 77 55 45 58 51 40 3 12 14 24 43 23 46 29 88 122 93 103 79 87 94 84
121 111 103 117 126 100 105 73 29 17 65 115 65 76 107 99 95 98 102 75 94 125 107 74 60 32 22 23 23 20 35 50 57 73 81 69 25 18 2 -7 13 14 25 22 25 63 75 74 39 65 84 58 85 77
36 44 62 64 153 44 49 95 34 86 189 109 105 82 97 95 86 162 120 76 59 63 80 29 29 27 -10 17 11 26 44 67 88 106 68 29 41 40 15 12 32 66 55 77 87 81 89 90 96 87 75 73 91 80
-35 1 58 45 41 68 82 108 110 90 80 93 110 108 90 90 113 135 99 79 78 137 44 23 38 10 0 19 47 49 35 89 116 147 121 103 78 67 64 -31 25 15 20 33 75 89 81 64 72 64 94 127 115 94
27 -11 5 97 67 53 40 65 76 96 99 101 82 74 108 155 159 97 93 34 163 155 59 50 26 15 53 61 78 89 89 114 87 77 155 103 47 110 8 11 -14 -23 -36 133 85 85 120 75 90 62 83 83 99 103
81 82 75 74 62 57 61 77 78 68 65 72 91 151 182 110 101 87 41 62 132 122 81 39 60 43 42 65 67 56 87 86 93 91 93 64 86 50 10 -29 -20 -13 106 149 120 110 133 107 60 85 78 89 106 97
109 104 96 69 72 72 83 82 94 104 123 152 138 73 75 59 81 129 122 78 59 80 71 26 50 31 6 37 28 41 55 73 41 39 71 67 45 -1 -16 -30 32 69 106 139 114 87 77 73 89 85 79 72 82 64
71 79 69 32 11 30 63 84 100 105 118 119 130 164 91 2 108 99 98 77 73 46 22 61 46 44 12 25 16 7 24 50 46 41 25 9 3 0 11 19 106 75 98 56 46 51 44 63 98 97 87 84 107 95
63 65 59 16 20 38 66 77 82 120 111 108 97 118 105 90 80 74 63 62 21 10 8 15 34 20 72 48 22 18 54 62 56 32 33 29 70 86 75 89 128 139 105 101 56 62 86 108 103 94 97 101 114 130
9 6 32 16 26 50 63 59 61 20 72 119 113 89 82 62 31 22 4 33 15 18 17 51 95 97 82 53 33 32 49 55 72 42 36 69 90 61 76 125 142 147 103 79 100 95 104 109 109 93 115 127 124 130
33 8 12 3 36 47 91 61 64 74 82 69 62 51 79 46 47 25 43 40 52 26 31 100 97 62 56 59 43 62 76 61 41 34 38 174 93 123 99 105 87 112 131 128 141 143 166 156 153 162 122 98 93 101
23 23 18 12 45 60 35 26 29 37 41 48 47 48 29 17 27 3 17 18 39 52 77 68 50 34 47 71 61 62 48 30 19 47 102 82 63 131 116 108 97 84 92 90 81 91 87 85 89 95 82 79 86 88
47 28 21 33 56 71 28 17 23 26 31 38 39 36 24 9 -2 -8 17 35 46 64 28 -5 29 31 48 43 49 45 65 42 68 76 49 48 97 147 117 98 77 56 53 61 57 47 52 57 63 69 75 72 68 71
41 29 40 83 72 35 24 47 15 15 21 25 18 11 10 37 25 20 45 63 72 57 19 76 54 63 56 47 56 91 94 80 85 40 44 63 71 49 61 66 74 68 69 62 64 64 61 59 58 65 76 65 73 83
52 22 45 55 19 19 35 20 15 -9 9 15 8 26 9 32 44 11 21 32 14 18 35 56 50 45 49 36 39 40 38 58 63 60 56 61 65 59 54 75 76 66 64 70 64 63 61 55 58 70 78 79 81 82
-6 -8 -17 -4 25 36 17 24 -6 12 5 -1 26 43 29 22 18 26 34 49 26 39 47 50 62 60 58 63 72 58 32 24 35 49 72 87 82 76 74 78 79 76 64 49 42 59 64 67 77 52 68 45 75 84
62 33 23 57 68 45 6 -7 3 13 18 10 2 24 7 15 24 28 58 46 36 48 67 73 83 69 60 46 45 48 64 64 45 49 72 81 71 68 77 67 76 74 84 102 93 68 74 99 104 118 114 135 154 157
47 62 46 14 14 19 27 24 14 21 17 16 12 16 9 0 6 18 25 59 58 69 53 52 44 49 56 53 47 51 58 62 64 56 69 76 56 57 82 87 105 110 116 116 106 108 139 123 104 108 140 168 191 195
42 43 30 26 18 10 21 22 27 17 22 29 17 26 28 33 33 38 45 67 96 93 92 69 69 71 70 79 76 76 75 76 77 92 91 66 66 59 65 74 75 89 93 94 89 92 93 107 109 125 140 158 178 177
9 10 39 33 27 25 22 29 31 24 35 28 36 49 49 55 70 72 96 90 82 84 96 105 118 117 78 51 65 74 74 72 73 84 94 103 97 86 93 110 105 92 98 99 87 105 119 114 107 124 134 143 156 170
17 11 13 24 20 19 24 29 36 32 46 48 51 64 59 57 60 92 102 82 77 61 82 75 79 80 68 65 74 70 72 83 96 90 78 76 88 95 91 89 94 105 107 87 86 103 110 121 116 105 116 132 129 136
19 25 21 13 8 2 9 20 36 40 40 38 59 60 56 57 67 66 70 59 53 64 80 81 83 71 74 93 81 77 71 66 80 91 101 88 81 69 75 84 107 101 92 86 92 103 113 112 94 115 114 116 119 130
49 59 65 57 55 41 34 19 16 27 48 48 51 79 59 52 46 43 81 83 78 93 91 93 107 121 111 95 102 92 105 113 84 108 98 107 109 99 85 85 81 91 100 112 110 106 110 101 119 124 116 128 151 202
71 82 80 76 74 73 65 58 57 44 43 47 57 52 59 58 40 90 73 96 102 124 144 170 191 148 150 172 164 153 128 143 162 140 121 125 140 140 144 136 153 127 109 111 118 118 126 131 129 136 189 187 205 214
61 59 60 60 61 64 67 70 56 55 69 107 94 69 78 105 122 85 78 64 80 92 96 120 159 181 158 138 125 112 125 127 139 130 123 127 123 126 142 156 157 147 141 154 137 132 133 136 158 164 171 203 227 217
51 53 45 49 49 51 45 46 53 80 101 87 91 98 116 109 77 56 60 55 62 69 66 84 111 124 129 125 120 115 99 91 91 91 80 107 105 123 123 126 128 131 133 170 211 183 175 170 189 212 218 220 237 239
38 43 42 54 59 53 63 69 61 71 55 59 77 71 56 54 63 62 51 51 51 57 70 82 84 80 89 97 111 124 148 145 174 152 103 111 137 122 105 108 114 122 132 146 169 207 243 256 267 238 214 203 196 198
24 31 36 51 53 57 83 72 56 45 52 58 56 45 41 74 27 37 57 67 80 93 87 90 86 94 98 100 93 96 109 118 129 141 135 127 117 124 129 134 130 125 118 112 118 139 145 158 161 154 150 173 181 173
24 25 27 30 43 103 69 58 52 46 57 63 56 72 95 73 59 67 84 106 104 86 77 73 74 84 96 139 151 171 170 118 103 100 105 123 153 168 167 157 145 131 132 135 138 138 143 141 144 154 150 147 163 168
48 28 33 38 44 54 89 71 34 28 38 56 55 57 95 102 86 111 72 90 136 164 119 150 195 205 168 147 157 170 186 176 187 182 191 195 174 164 157 154 152 148 142 137 136 140 143 147 142 157 170 154 143 140

GFSWCAN_con_3kmhel_159.txt.gz
Helicity
-1 3 3 11 28 28 26 25 29 38 37 38 30 75 76 73 60 267 153 83 71 99 120 114 152 139 154 151 100 98 87 88 141 137 111 88 73 56 57 32 42 43 52 251 116 92 69 124 114 73 10 58 58 86
6 1 -4 -1 -13 8 32 35 32 37 33 35 28 63 108 68 226 330 139 103 173 110 105 133 126 117 155 127 124 92 91 114 102 102 87 89 101 53 26 -19 19 33 109 127 224 34 69 54 85 57 30 39 74 143
-6 -5 -6 0 10 24 10 55 24 35 30 29 39 62 53 47 159 89 150 130 155 110 103 88 54 42 66 88 56 84 79 62 94 81 73 63 46 46 26 3 2 26 11 111 85 95 121 81 19 3 87 107 155 170
10 12 1 -6 -17 -18 9 29 27 22 20 32 39 49 44 72 224 83 62 101 141 88 93 78 55 45 19 66 75 68 69 92 73 54 46 48 11 35 10 4 -32 -35 25 46 -68 55 98 63 -147 25 93 116 171 168
24 18 1 7 7 9 8 9 11 1 35 35 81 10 94 141 107 116 156 102 75 46 48 65 94 42 70 60 67 90 92 90 104 81 57 41 23 16 -2 -8 18 37 3 13 26 2 11 15 -4 50 121 100 103 139
84 97 89 36 46 26 17 23 28 43 20 33 30 45 53 0 124 186 89 147 108 83 60 78 65 37 64 65 77 73 82 102 115 82 88 49 88 67 2 32 37 23 -11 -12 -27 17 28 76 104 133 134 101 135 136
127 84 48 92 97 132 130 87 46 48 15 64 94 60 55 89 201 118 73 69 67 93 105 89 44 37 23 73 85 97 89 82 96 93 93 92 102 83 44 22 103 26 -13 4 22 60 61 73 75 124 152 159 150 146
35 49 64 75 66 57 26 74 70 99 65 50 70 85 161 181 186 193 188 48 146 162 93 56 65 50 66 85 80 123 99 123 84 108 96 97 71 123 -8 2 9 33 32 39 101 62 67 108 123 167 159 135 166 161
45 42 46 57 39 79 114 79 115 107 142 160 185 233 258 194 155 130 66 126 103 117 56 22 35 49 48 84 80 88 91 61 54 38 89 80 102 80 35 3 -7 -33 -12 26 148 131 127 170 126 162 129 83 158 164
76 33 -45 25 48 5 3 41 79 116 133 166 233 193 143 104 53 111 44 53 60 65 77 42 54 36 29 28 42 52 48 54 21 33 85 105 101 56 22 31 15 20 92 162 233 148 155 155 175 173 109 128 162 145
34 20 27 40 47 56 72 87 92 97 155 212 203 145 77 25 94 82 78 81 69 54 53 34 70 54 49 55 30 15 36 31 25 50 57 28 14 9 2 26 95 97 118 129 66 83 94 106 138 169 172 157 139 118
42 26 -1 22 46 63 69 77 100 156 167 113 88 92 123 23 72 82 85 70 37 22 47 17 42 53 69 39 36 13 21 19 53 63 56 32 41 50 86 108 139 183 172 161 133 149 132 173 197 216 201 183 167 151
6 -15 22 41 52 56 91 88 65 26 79 121 155 94 57 72 72 37 27 41 50 34 22 34 66 83 105 91 46 36 21 29 54 60 39 33 80 113 112 180 213 162 152 192 221 209 226 247 222 193 171 147 152 152
21 -26 16 25 29 25 35 68 88 146 95 70 73 73 71 48 49 42 46 44 27 37 24 88 101 63 65 66 53 52 72 61 66 66 53 97 117 144 158 195 208 185 170 180 177 192 203 197 184 170 132 95 108 106
-15 -7 29 12 19 -16 29 44 41 25 60 65 58 52 38 25 16 5 -19 -2 27 51 71 125 105 71 67 63 69 74 83 70 55 55 62 85 118 155 169 155 137 124 114 119 104 120 125 128 128 109 88 80 91 93
5 8 -6 21 14 -28 -10 71 57 39 47 40 40 28 32 11 -14 5 -12 -3 -2 9 79 33 25 38 48 59 53 66 85 53 52 52 50 50 106 164 169 137 103 81 74 70 66 73 75 74 73 72 70 72 68 75
32 3 12 27 37 45 26 50 14 27 30 27 23 11 -14 0 12 5 -1 17 50 31 34 25 63 37 27 33 41 73 81 71 63 43 39 51 61 85 110 109 105 86 76 69 68 60 60 62 73 83 87 62 75 73
76 30 41 22 -9 3 26 12 12 6 12 9 13 -2 -17 -8 -4 -5 -8 11 48 57 34 23 76 35 30 39 55 52 42 41 56 49 45 53 58 51 80 87 84 64 64 60 56 57 56 54 68 68 74 74 89 88
11 -6 0 2 23 26 14 14 -6 11 4 -12 -4 4 2 3 12 15 15 17 17 23 23 53 46 51 50 52 51 51 40 35 36 45 61 73 76 93 89 76 92 69 68 68 65 53 40 31 60 59 68 68 75 91
37 22 31 34 26 21 15 -4 -20 2 9 -9 0 28 27 17 9 11 33 47 35 29 38 62 55 55 59 50 46 44 55 66 57 43 55 75 80 92 73 75 81 90 96 98 91 91 136 169 135 103 68 51 100 108
40 34 39 36 -1 -8 0 9 7 5 12 2 3 -3 14 0 3 0 11 31 34 20 19 44 53 54 54 51 49 67 78 55 40 38 63 65 76 91 114 95 91 93 102 107 118 139 143 123 114 128 162 198 196 184
12 15 -2 12 -3 3 12 8 5 -1 2 5 10 4 10 8 6 6 16 29 29 28 48 44 59 50 70 84 82 83 81 86 91 104 111 94 77 70 70 86 127 123 115 105 112 128 123 110 114 132 152 167 192 217
-5 9 20 22 22 31 15 23 11 6 9 7 15 9 20 25 29 42 39 63 69 70 70 90 81 69 93 82 78 78 69 69 82 86 83 87 95 99 108 119 112 113 126 119 116 108 105 104 112 124 138 153 170 190
20 17 10 14 14 17 22 30 27 30 49 45 40 37 43 42 44 37 56 71 84 84 78 89 118 121 100 70 62 71 71 79 92 100 100 113 114 104 102 111 127 141 114 88 92 98 102 104 118 120 120 128 126 145
49 26 39 23 22 23 14 14 19 28 31 26 49 47 44 42 37 38 51 72 60 68 76 87 95 78 77 78 85 77 54 70 89 115 99 89 93 96 112 125 112 99 99 94 89 101 113 110 119 117 122 116 126 153
54 54 56 49 48 51 44 41 24 13 28 33 25 50 54 44 44 29 74 83 79 80 68 69 81 80 99 104 97 91 94 94 104 127 135 126 106 79 92 95 93 85 81 105 110 111 128 108 112 123 112 119 173 198
72 91 94 96 86 79 74 67 78 69 51 34 44 56 36 34 21 72 66 75 76 84 95 107 111 98 145 177 180 178 158 169 147 151 161 161 147 139 131 98 122 101 109 111 123 117 123 129 142 131 149 207 240 237
50 51 51 59 75 90 88 84 74 49 46 89 113 98 56 61 84 77 68 61 51 60 77 94 129 166 175 169 149 154 158 181 213 216 204 181 153 130 139 173 181 163 148 141 137 147 155 161 183 217 240 247 248 251
29 50 45 40 53 61 67 71 68 80 109 97 72 69 114 104 64 43 43 47 59 67 61 65 99 135 152 136 113 108 112 125 133 126 114 123 111 111 114 139 158 160 167 189 200 183 200 213 233 257 278 298 297 287
36 37 27 39 50 41 56 72 86 96 102 101 107 105 75 63 53 66 51 61 65 65 67 78 90 91 100 107 111 119 134 138 147 114 76 102 100 122 125 121 122 137 157 194 226 249 286 291 292 285 277 273 270 263
49 49 62 58 47 33 76 88 80 77 85 82 99 112 91 75 75 57 49 54 53 48 66 105 97 85 93 106 117 123 121 127 142 144 145 159 157 131 122 127 131 147 160 173 194 208 218 221 213 211 210 217 220 221
76 87 75 78 60 75 57 40 47 72 88 87 86 105 118 119 97 116 112 105 101 98 106 104 90 87 94 141 148 128 124 127 120 128 129 131 140 143 151 155 160 146 132 142 147 144 157 159 172 180 176 187 195 192
134 110 97 81 68 52 72 47 20 6 44 67 74 80 73 67 100 145 116 109 113 115 95 90 101 161 173 183 187 189 189 166 151 148 158 161 162 164 174 179 178 179 179 172 168 172 173 176 168 190 199 189 177 170

GFSWCAN_con_3kmhel_162.txt.gz
Helicity
10 13 12 10 9 10 10 14 24 34 40 47 50 51 48 51 86 71 83 172 291 195 123 103 99 93 94 122 130 134 138 153 179 140 102 70 65 58 59 46 60 45 67 110 117 115 144 71 62 102 32 31 33 55
3 7 8 2 -4 -10 22 32 26 26 28 36 46 47 43 50 74 52 49 225 163 203 119 122 136 149 98 111 158 199 131 93 111 121 109 87 64 86 60 34 22 26 42 60 144 73 105 110 82 80 42 23 31 90
-12 -7 -17 -4 -4 -5 7 17 13 17 12 26 37 41 35 42 73 68 101 177 224 141 142 128 105 91 98 65 81 95 126 119 88 104 112 93 56 43 43 14 32 27 6 -8 -16 33 32 44 62 62 88 26 88 141
-28 -27 -7 2 1 -3 -4 30 12 23 32 34 38 36 37 32 77 67 279 242 233 191 158 75 74 66 60 66 63 98 99 121 82 52 88 95 53 43 16 19 -7 12 12 32 -2 9 13 -9 102 66 32 66 148 150
3 0 0 1 -12 -10 -10 -6 6 28 20 26 31 34 44 51 45 106 313 239 167 183 72 88 102 60 56 44 56 94 90 117 119 100 63 53 42 21 4 -2 16 60 18 39 4 -4 35 24 -38 -10 18 84 98 136
72 46 37 12 2 -5 6 1 11 13 21 25 27 38 46 63 49 156 237 224 180 122 142 125 99 72 75 92 76 96 123 131 119 87 75 53 92 55 -28 -11 10 39 51 38 -10 -32 -17 68 -38 34 61 90 118 132
89 73 67 49 41 21 7 10 4 2 5 21 45 54 38 86 194 277 144 64 166 135 109 84 46 53 51 68 90 137 152 103 100 73 66 80 75 60 27 9 57 41 14 17 9 26 64 51 56 88 153 145 145 135
56 142 125 73 56 47 45 19 -7 0 6 24 11 89 152 390 531 282 113 84 205 113 76 87 72 99 110 105 121 146 130 120 71 55 54 50 68 97 -2 42 46 121 60 36 32 65 51 75 142 157 198 204 194 171
32 119 165 164 151 47 16 31 7 18 58 43 215 161 337 312 301 198 63 148 144 119 73 60 56 51 72 96 105 125 103 73 89 65 75 74 89 98 122 62 49 8 62 31 49 75 93 140 145 153 173 196 215 180
40 31 16 100 51 134 13 25 60 40 194 259 377 260 246 271 105 177 169 122 108 82 96 -7 27 30 71 36 42 75 85 68 29 21 100 84 87 99 118 132 76 73 11 -3 -2 122 148 171 146 125 133 162 165 139
24 26 26 37 39 177 221 212 188 142 208 293 321 284 164 158 204 142 114 108 93 33 -2 -5 43 76 59 51 24 33 25 34 33 45 67 27 15 10 18 36 63 74 49 73 81 115 116 59 107 155 133 116 142 142
4 -2 3 26 52 73 115 136 154 186 176 156 204 232 185 168 122 109 127 109 57 33 29 23 41 90 97 61 24 30 25 26 2 143 47 28 25 28 21 58 96 117 158 181 116 59 77 114 162 175 159 143 130 123
21 18 8 -10 2 32 57 37 68 65 143 199 206 176 137 118 108 68 28 44 37 26 21 49 65 68 72 69 34 33 44 17 21 16 31 12 50 80 86 124 156 149 170 188 80 161 218 234 206 177 159 136 134 138
14 4 -6 19 69 87 84 89 121 88 98 139 149 134 119 82 29 6 30 37 32 32 61 100 51 38 71 71 46 30 38 32 36 38 22 55 93 93 98 107 119 111 120 143 155 177 192 190 178 147 118 97 121 111
-23 7 -11 6 30 72 75 75 88 48 57 79 69 60 42 48 37 37 26 20 12 18 50 62 18 73 82 60 46 55 56 34 15 32 51 69 87 100 111 109 119 118 120 116 100 131 138 133 133 124 90 86 103 105
10 3 18 -22 -52 16 52 46 40 44 48 52 50 52 54 50 29 24 29 12 4 8 0 19 46 89 80 83 49 43 68 50 44 64 55 45 71 104 111 97 89 87 95 98 89 81 87 86 84 86 84 76 71 73
-3 -23 6 -9 -19 37 69 29 24 24 27 34 43 29 4 21 23 -2 -5 4 14 -26 8 34 31 62 61 66 54 59 42 61 57 60 58 58 55 73 87 99 86 86 81 68 67 69 65 63 79 84 87 55 62 59
38 -16 12 5 18 68 40 17 7 18 19 10 -2 9 3 -9 0 -3 9 10 6 18 32 46 38 101 30 18 42 47 55 45 46 50 49 55 55 56 74 71 69 83 80 70 61 59 62 66 66 65 78 68 83 83
-15 -14 -17 3 41 50 27 26 7 23 5 -5 8 13 9 14 6 7 14 12 11 57 48 43 43 41 33 38 33 32 44 46 46 41 48 52 64 68 53 67 82 76 76 67 61 52 33 38 56 68 74 76 88 88
29 27 27 24 36 37 27 21 -5 14 9 -11 -1 8 18 9 22 16 23 20 47 24 35 52 77 58 45 47 40 38 48 62 78 66 53 47 52 65 57 67 80 83 87 80 85 85 84 89 73 68 76 81 89 70
27 40 48 25 21 8 6 13 11 6 5 -1 -1 1 11 12 11 10 20 19 31 52 33 33 53 59 58 57 52 51 59 60 39 43 53 49 47 53 58 72 87 91 92 108 122 115 124 115 101 96 89 79 90 100
-5 15 7 5 -1 9 3 4 -1 -1 14 5 9 -10 -2 5 8 5 9 21 16 22 38 42 55 59 67 70 67 66 69 80 77 73 97 79 64 76 67 68 105 120 93 100 115 131 137 127 124 128 142 151 170 168
-8 3 14 20 20 23 -2 7 22 10 17 12 21 12 5 7 6 18 21 20 26 40 52 44 52 63 77 88 81 81 74 78 80 74 74 66 69 72 76 89 98 105 119 122 130 136 132 119 111 123 134 157 189 221
37 36 27 8 12 5 10 24 16 14 30 26 22 22 32 31 41 32 17 29 69 86 85 53 93 117 117 109 86 73 64 67 77 77 80 101 108 102 109 127 136 128 107 112 113 112 101 92 114 128 135 153 160 179
55 21 41 28 24 43 42 37 32 34 19 10 30 31 28 40 45 49 55 77 74 60 69 80 99 101 109 95 72 58 52 68 78 78 65 85 114 127 125 127 127 123 108 105 95 98 102 106 108 125 121 128 144 157
36 44 64 59 39 47 21 30 23 18 28 27 13 24 44 40 54 28 70 82 66 49 52 57 67 78 86 96 97 92 72 69 101 106 88 76 85 102 97 94 91 84 89 99 91 98 108 114 109 119 119 130 158 182
40 43 52 58 70 71 73 68 65 76 59 41 45 75 66 45 17 43 37 30 30 40 53 55 55 48 66 119 152 144 128 123 118 121 135 142 132 111 94 102 110 82 85 95 104 99 118 118 115 130 133 141 153 171
54 51 43 32 32 58 74 79 80 71 46 41 72 50 28 31 46 34 38 40 48 45 47 45 39 42 79 135 165 167 164 172 200 204 195 178 140 121 124 144 161 143 119 109 114 124 133 138 145 160 171 194 220 221
73 58 58 51 38 39 48 60 59 80 88 103 92 84 73 83 68 38 4 2 12 20 24 55 58 83 104 118 124 120 111 131 152 139 118 119 106 103 112 148 159 153 150 155 149 142 157 172 199 223 234 237 246 263
92 91 115 110 118 75 38 51 44 54 76 88 89 91 111 131 108 110 104 68 48 32 27 45 69 80 83 92 94 103 99 94 103 96 101 97 86 100 112 124 138 142 153 177 196 215 259 273 277 262 260 256 255 262
109 126 133 147 141 79 50 41 32 44 67 82 128 134 104 75 97 119 123 95 81 68 61 55 75 86 80 83 98 113 110 109 102 92 100 114 146 137 121 123 119 123 135 159 189 211 229 232 222 219 215 218 216 217
154 151 177 176 133 89 96 83 56 60 49 58 70 94 105 102 73 89 113 83 82 86 78 78 96 87 73 79 91 96 67 83 90 100 108 125 142 140 134 125 120 126 147 171 185 186 190 193 185 180 181 191 188 188
171 174 168 141 124 111 97 78 68 30 31 49 42 45 59 69 69 80 67 89 74 65 61 53 56 82 105 123 135 143 139 116 100 101 108 115 118 124 130 127 123 124 139 147 152 154 156 167 170 177 179 179 182 181

GFSWCAN_con_3kmhel_165.txt.gz
Helicity
38 28 23 17 17 19 18 16 16 22 25 33 50 54 61 63 61 87 114 73 100 72 63 128 185 73 119 112 104 66 205 201 182 156 106 99 85 71 65 69 83 68 58 68 88 106 59 84 35 73 42 39 25 24
28 35 28 26 26 19 15 14 14 17 19 26 36 46 59 54 63 51 98 90 74 117 61 151 117 100 81 63 102 82 104 112 129 157 158 115 108 93 63 65 66 74 82 69 38 25 103 35 6 46 58 45 24 16
44 28 23 30 19 8 1 -4 1 20 30 35 29 31 43 49 54 57 97 90 67 25 31 103 124 118 113 115 82 94 64 89 119 105 101 84 93 73 65 76 52 35 41 9 33 12 -3 8 -25 7 30 28 23 28
28 28 19 34 7 -12 -22 -7 -2 4 9 15 21 26 38 48 51 43 83 74 92 42 52 114 166 141 101 94 105 107 69 116 135 125 105 83 78 84 54 45 24 25 40 31 36 38 -12 -26 21 -11 31 15 14 65
135 -19 -21 -29 -37 -22 -8 -2 -9 14 27 22 18 22 37 47 47 47 42 63 77 135 43 114 154 119 80 69 63 101 120 133 147 124 85 45 3 64 51 32 35 113 99 82 35 -14 -13 -11 84 -17 0 1 18 93
231 238 -10 -32 -36 -22 6 9 -2 3 18 27 42 45 46 45 36 61 69 81 110 79 74 139 123 92 95 78 83 105 109 127 137 94 64 54 76 45 -24 -2 3 22 68 48 40 33 79 -18 17 8 -20 6 53 82
54 140 79 -1 -18 -14 21 10 2 4 21 34 43 30 36 36 53 32 63 22 177 198 162 116 117 179 113 117 132 127 134 137 137 116 83 79 68 57 33 33 65 82 42 26 58 71 16 2 35 25 17 52 89 114
-22 18 31 21 14 -7 6 13 31 17 20 22 31 38 42 61 27 37 81 59 89 204 175 101 126 122 116 117 122 131 129 142 127 119 103 63 46 53 12 69 76 89 102 58 11 -1 -4 33 30 51 89 132 163 139
94 64 88 68 40 41 8 8 24 25 20 16 14 47 83 60 89 106 144 161 147 97 82 100 88 73 93 108 107 90 111 114 123 104 105 71 56 41 65 25 73 77 81 69 69 65 52 55 28 89 156 174 180 144
108 80 147 93 46 62 44 27 15 7 13 -9 43 200 148 143 93 182 189 124 151 106 105 82 93 88 81 72 62 53 60 78 55 67 89 67 45 74 82 113 156 141 104 67 27 -17 31 78 123 177 164 139 132 141
262 233 -2 74 51 16 14 34 23 -10 51 157 134 204 205 194 257 293 128 98 105 84 53 53 57 63 44 74 69 34 37 40 35 52 98 50 19 16 7 22 23 7 84 64 47 25 50 179 247 263 101 58 91 98
82 188 210 111 30 6 113 124 97 129 81 151 249 245 311 180 110 82 102 101 64 42 27 28 17 66 88 109 81 29 14 18 3 69 22 42 26 48 29 23 45 29 43 68 76 87 74 79 77 72 83 123 96 92
63 54 40 94 153 115 84 100 103 104 247 286 255 191 133 111 76 42 31 63 49 41 27 33 42 80 113 92 87 50 28 15 -22 -22 -8 26 29 48 55 51 76 67 74 96 107 93 90 108 155 164 154 132 130 127
46 73 86 85 119 126 109 45 9 54 94 129 157 128 91 81 54 33 52 67 45 38 35 60 85 61 65 63 59 59 33 18 22 17 10 7 39 62 52 43 38 40 66 80 103 106 121 141 165 166 145 120 125 110
15 27 58 101 57 76 67 60 74 70 90 106 94 87 75 70 62 52 20 52 46 46 69 75 62 43 78 55 55 62 50 15 10 14 25 19 37 62 77 72 49 45 79 98 88 93 114 117 138 141 120 99 107 104
9 15 53 63 53 52 72 45 21 12 34 57 73 80 62 60 25 23 36 45 40 31 37 28 46 29 65 155 68 56 68 36 27 40 38 38 40 61 75 72 58 61 78 80 82 77 86 84 84 89 93 83 78 79
-15 -35 41 95 105 77 64 40 51 51 50 61 61 66 53 53 48 51 26 19 32 25 38 14 14 47 85 118 74 69 79 60 35 42 48 70 65 60 66 76 75 82 79 71 68 65 69 67 78 79 86 65 70 65
2 -20 27 68 62 45 34 21 21 35 36 25 28 36 39 26 16 25 22 18 19 6 1 13 52 48 50 30 25 37 75 65 58 46 44 50 50 44 60 73 78 60 55 59 64 62 62 68 67 61 72 67 86 83
-16 -26 -5 40 54 31 27 27 11 12 1 -5 7 20 28 29 31 25 24 18 20 -3 47 53 51 34 46 64 38 33 31 30 24 31 37 35 38 35 52 82 75 63 51 50 46 46 43 42 57 70 71 68 83 82
23 26 46 41 29 16 13 10 -3 8 6 -3 1 3 7 21 30 24 28 17 34 45 58 58 45 51 64 55 41 39 39 44 58 40 36 39 41 40 43 52 56 73 84 68 54 78 86 88 72 70 69 73 89 89
14 27 25 18 13 3 1 8 -3 -5 12 4 -5 -5 0 11 33 29 23 18 38 60 42 41 37 39 68 62 53 50 55 60 45 44 50 46 48 44 51 49 65 86 112 78 97 96 78 70 64 71 87 92 97 103
24 -7 11 7 9 8 12 7 1 -2 1 -6 4 0 7 11 15 9 9 17 19 23 38 20 27 30 45 44 50 67 69 71 77 80 87 70 61 52 46 46 66 83 103 114 112 101 107 113 113 108 107 107 115 122
26 30 23 11 22 29 6 3 25 18 24 12 15 9 7 12 8 13 11 14 22 40 47 42 40 43 59 75 86 84 78 68 69 75 75 65 52 41 48 50 65 86 113 93 82 117 129 126 121 123 123 134 157 176
54 49 37 21 23 13 15 27 17 19 26 31 31 25 25 24 27 31 18 39 58 46 69 49 44 77 93 92 82 77 76 72 74 71 66 69 65 62 68 76 89 94 97 106 121 130 122 109 97 98 121 144 160 176
26 22 19 10 18 34 38 36 36 46 38 35 41 29 23 31 31 42 54 69 77 53 56 66 65 64 81 91 81 66 67 67 71 73 64 83 101 101 113 120 127 119 105 125 116 111 103 98 98 114 131 149 157 162
26 22 21 26 16 15 18 4 27 42 43 40 23 35 60 54 41 15 54 58 49 48 56 58 58 65 71 82 97 97 87 69 87 90 79 72 83 93 89 93 94 88 88 91 107 108 111 111 105 98 111 128 152 167
48 36 20 18 18 19 15 26 34 45 42 39 61 79 62 38 12 16 19 0 13 22 27 28 45 53 51 51 87 127 135 100 81 90 108 132 127 100 93 96 92 79 97 109 109 100 104 106 103 101 120 140 135 149
80 77 84 52 50 46 67 59 41 36 18 37 75 41 60 53 39 20 -16 -19 -26 -21 -8 3 26 35 33 34 72 137 157 158 170 162 163 163 144 120 105 103 103 113 110 94 77 72 86 105 119 127 132 137 146 152
103 114 129 91 88 95 89 91 78 53 54 62 57 47 63 66 33 23 19 27 32 21 8 4 17 27 45 63 76 94 99 126 130 109 98 116 106 96 98 109 116 122 119 128 131 121 123 128 131 143 163 191 205 231
119 134 165 170 153 109 93 99 93 50 29 26 12 4 23 72 80 83 113 116 94 53 33 31 28 37 45 67 81 94 92 77 85 78 76 75 66 73 84 95 109 122 138 153 165 170 184 184 200 207 223 226 228 238
163 190 202 203 179 141 131 82 72 69 63 18 34 54 35 12 64 95 116 90 69 65 65 56 47 42 60 64 71 77 83 80 74 70 68 75 98 101 95 87 95 109 122 130 133 141 158 174 189 203 203 205 204 209
191 189 211 194 157 122 116 139 116 108 80 80 57 59 34 35 22 79 91 89 78 72 68 61 52 55 78 71 64 68 61 62 68 70 83 103 123 135 123 100 93 106 119 128 138 147 164 185 184 181 181 185 185 195
168 181 176 158 132 123 124 109 121 110 110 99 66 51 53 50 52 61 28 20 30 33 38 33 30 39 74 90 77 83 93 78 67 74 83 101 107 111 107 99 95 106 128 145 160 174 180 185 179 175 175 181 180 183

GFSWCAN_con_3kmhel_168.txt.gz
Helicity
55 48 50 50 45 29 16 13 16 15 16 26 33 37 38 45 53 104 103 92 112 106 67 95 39 56 138 119 69 59 141 151 151 110 81 61 33 57 84 86 108 98 59 81 94 88 55 68 70 62 60 34 33 15
74 72 78 71 62 48 28 20 21 15 11 17 23 28 33 42 43 61 124 90 84 104 81 69 8 -15 31 34 52 89 83 62 69 89 81 67 97 84 71 105 43 74 109 90 85 61 33 21 16 28 17 -12 25 52
65 63 73 59 57 42 36 26 27 13 6 13 17 19 19 31 38 65 114 83 113 77 -14 -29 -74 -17 -3 1 58 65 104 101 114 107 94 112 86 74 65 38 75 65 77 87 52 11 -13 46 2 -17 3 24 11 30
64 74 75 78 69 63 30 25 22 -5 5 0 7 40 19 24 35 52 92 82 97 62 -13 -36 49 72 16 18 43 97 110 144 112 114 111 113 92 78 50 64 47 51 43 31 57 33 29 -3 -45 -6 64 69 37 42
95 107 65 108 90 48 29 19 0 -19 -7 -4 28 18 11 27 36 68 71 63 80 26 22 2 51 116 101 44 94 113 121 117 108 102 92 80 107 110 77 27 7 128 94 94 41 57 22 27 -7 26 17 40 44 24
105 136 159 193 270 45 12 27 -11 -6 7 -8 15 12 10 23 33 92 63 29 52 81 4 -58 7 36 64 71 103 129 120 116 119 102 95 85 143 119 35 22 9 70 102 84 13 41 25 30 -1 -33 -27 22 25 41
79 4 22 101 325 26 -46 -18 -22 3 1 11 22 18 29 29 64 99 72 87 59 102 32 -39 -37 72 85 147 154 146 139 136 132 101 104 139 129 111 76 -1 47 73 63 57 57 46 1 26 33 39 -30 15 25 66
70 29 -2 133 198 -17 -37 -34 6 23 5 18 28 36 30 26 22 -29 -250 90 100 140 39 30 42 73 157 128 128 125 150 154 138 125 155 145 129 139 0 24 17 16 60 56 24 35 3 34 25 12 40 48 66 91
50 0 10 76 38 -3 -10 -10 -2 20 5 19 19 25 65 47 18 -100 -40 31 227 135 82 88 46 47 84 100 110 112 123 138 127 180 182 130 148 104 69 37 25 90 107 67 25 40 59 38 37 41 48 75 110 111
36 14 26 21 14 -2 -2 5 28 29 21 -7 66 63 9 -1 5 131 84 63 114 57 124 103 99 98 105 111 130 128 108 98 123 102 134 130 144 141 83 83 105 92 75 70 -5 -19 -20 1 19 41 87 96 112 115
40 36 27 32 24 13 16 19 28 18 -10 24 -40 19 41 67 129 50 63 76 69 57 36 82 88 108 85 115 127 82 89 51 45 60 114 73 127 158 54 43 34 41 38 50 65 -5 -7 43 81 128 185 264 251 188
12 21 29 25 27 27 9 6 9 10 -16 -54 -31 139 173 50 52 37 77 58 36 56 46 50 86 144 128 93 95 74 72 57 -3 83 52 9 -9 14 35 43 36 31 29 26 29 36 42 65 55 83 89 25 26 73
47 48 33 49 10 -17 32 21 28 27 -2 84 244 187 91 66 54 16 39 59 59 33 51 75 72 56 80 87 114 112 78 19 59 11 23 -6 -10 36 54 43 50 51 50 51 59 87 87 83 82 83 60 59 84 94
55 56 34 62 95 80 26 10 -10 156 225 155 111 48 67 71 30 32 43 73 69 85 58 44 55 54 76 103 123 115 67 75 43 29 50 3 -11 7 35 45 46 43 43 54 77 88 91 81 112 120 119 109 108 92
30 37 62 120 53 47 85 102 107 140 114 92 75 46 46 50 44 44 65 78 92 67 59 41 54 77 70 60 74 75 52 31 28 19 6 -5 1 16 58 63 56 49 49 63 66 80 88 94 131 144 142 123 117 103
24 13 43 70 66 48 18 21 41 37 25 32 63 53 58 71 79 81 63 44 37 45 49 57 35 47 90 128 139 94 60 50 28 5 11 23 32 57 60 73 67 61 57 71 77 74 75 75 88 98 117 108 88 79
15 3 81 66 87 77 60 23 31 27 34 56 61 63 58 54 49 51 47 36 39 47 56 58 33 11 76 100 131 120 81 51 37 48 41 42 49 53 67 65 53 55 73 75 64 68 62 58 67 78 99 85 90 91
-18 2 70 106 74 17 7 13 24 39 42 43 46 46 60 60 44 30 39 55 61 50 55 53 57 38 51 39 28 45 56 67 68 41 50 37 35 50 73 68 52 48 46 50 57 67 59 62 67 63 74 76 103 102
-27 -17 9 48 52 28 35 34 29 34 21 16 20 29 37 41 47 36 29 39 56 56 45 36 50 41 35 45 51 48 43 40 31 26 26 25 28 34 45 71 62 57 65 59 59 57 45 45 51 57 63 69 89 82
34 33 33 26 15 13 18 10 8 10 11 2 3 15 15 25 41 49 43 44 56 49 40 43 44 53 57 51 58 52 53 48 50 27 11 10 20 34 50 62 66 66 64 68 68 62 70 78 64 63 64 70 82 79
-7 -9 -3 -17 1 11 9 14 11 7 8 8 -2 -5 -2 -1 22 42 47 11 37 55 51 46 49 56 55 85 80 65 58 42 35 21 7 25 41 39 42 57 62 61 71 91 115 88 66 69 64 72 82 88 104 110
40 -6 6 2 21 21 27 18 14 11 22 15 23 19 17 18 20 28 28 34 30 34 38 41 42 5 8 31 36 48 47 55 61 67 74 72 60 51 45 52 60 56 58 90 98 82 75 87 95 102 113 113 117 121
24 34 29 22 19 24 14 13 36 29 35 25 34 37 33 37 32 37 39 44 51 61 58 39 28 29 27 27 36 49 66 74 71 63 60 67 65 55 45 47 51 52 62 87 92 105 97 104 123 137 130 116 123 137
24 25 10 11 10 6 22 30 32 37 39 38 34 27 27 27 34 51 50 70 66 58 67 75 64 63 63 65 73 72 62 66 70 73 70 80 77 67 56 48 53 55 91 91 91 110 100 122 128 111 105 123 140 149
27 17 7 11 5 -8 -14 -18 -13 5 12 39 50 45 46 50 50 44 53 62 51 44 43 51 54 52 55 62 68 73 70 62 75 78 84 88 93 92 95 91 87 92 104 118 107 114 111 103 88 74 101 130 145 155
71 45 57 69 45 35 15 11 -7 -5 2 -2 7 49 81 71 52 28 41 24 21 28 44 64 72 72 60 44 58 77 92 98 89 80 74 79 90 97 89 90 98 96 92 97 105 108 107 112 117 116 103 110 139 161
92 90 75 38 47 52 63 61 54 60 54 40 27 38 47 29 20 44 38 16 -9 -30 -33 -25 -9 27 54 63 58 56 70 107 117 94 95 111 113 101 103 108 105 95 95 103 115 119 118 116 111 100 109 115 108 130
113 94 100 71 77 108 126 118 111 107 90 68 87 77 64 51 43 62 12 -18 -35 -36 -33 -17 1 8 21 36 38 44 64 105 157 161 143 133 125 116 109 111 104 91 101 102 97 94 97 108 114 117 108 108 111 116
86 93 130 114 111 103 121 135 125 137 130 133 118 106 102 67 40 3 -12 17 52 60 42 30 22 31 34 28 48 58 56 75 101 112 101 107 103 99 102 102 105 109 114 126 123 105 99 106 120 126 125 137 154 169
105 128 146 153 142 120 135 161 151 122 91 89 73 63 62 33 25 46 47 68 76 70 51 34 28 30 36 43 55 73 81 88 90 86 86 72 56 70 83 92 99 107 121 135 145 156 184 202 211 195 195 202 214 238
151 156 164 170 145 142 146 103 104 126 129 120 112 98 73 83 81 81 83 79 69 77 82 91 92 67 47 53 79 84 75 60 63 69 64 61 69 80 89 91 92 103 117 125 128 135 150 167 174 181 186 195 210 221
140 132 140 149 141 103 108 111 126 173 143 128 117 113 101 97 103 101 47 59 65 87 61 51 49 54 58 55 67 86 64 59 52 58 71 83 105 117 125 114 104 110 119 123 128 139 151 163 167 171 181 191 191 195
147 174 151 114 86 96 100 106 97 85 84 96 91 89 93 83 91 63 6 17 8 10 25 24 18 25 37 54 86 79 67 68 57 56 61 77 105 125 125 114 104 108 123 132 139 142 160 175 177 182 183 181 186 195